Cairo, IL

12:11 PM CST on December 15, 2019 (GMT -0600)
Cairo Regional

Weather History for KCIR - October, 2019

Change the Weather History Date:

Thursday, October 17, 2019

  Actual Average Record
Temperature  
Mean Temperature 48 °F -  
Max Temperature 60 °F 67 °F 85 °F (2016)
Min Temperature 37 °F 49 °F 34 °F (2015)
Degree Days  
Heating Degree Days 16    
Moisture  
Dew Point 41 °F    
Average Humidity 79    
Maximum Humidity 100    
Minimum Humidity 48    
Precipitation  
Precipitation 0.00 in - - ()
Sea Level Pressure  
Sea Level Pressure 30.08 in    
Wind  
Wind Speed 1 mph ()    
Max Wind Speed 7 mph    
Max Gust Speed -    
Visibility 9.7 miles    
Events      
Averages and records for this station are not official NWS values.
T = Trace of Precipitation, MM = Missing Value Source: Averaged Metar Reports

Daily Weather History Graph

Daily Weather History Graph

Search for Another Location

Airport or City:

Astronomy

Oct. 17, 2019 Rise Set
Actual Time 7:06 AM CDT 6:17 PM CDT
Civil Twilight 6:40 AM CDT 6:43 PM CDT
Nautical Twilight 6:09 AM CDT 7:14 PM CDT
Astronomical Twilight 5:39 AM CDT 7:44 PM CDT
Moon 8:53 PM CDT (10/17) 10:33 AM CDT (10/17)
Length of Visible Light 12h 03m
Length of Day
11h 11m
Waning Gibbous, 86% of the Moon is Illuminated
Oct 17
Waning Gibbous
Oct 21
Last Quarter
Oct 27
New
Nov 4
First Quarter
Nov 12
Full

Hourly Weather History & Observations

Time (CDT) Temp. Dew Point Humidity Pressure Visibility Wind Dir Wind Speed Gust Speed Precip Events Conditions
12:15 AM 41.4 °F 39.6 °F 93% 30.10 in 10.0 mi Calm Calm - N/A   Clear
12:35 AM 41.5 °F 39.4 °F 92% 30.10 in 10.0 mi Calm Calm - N/A   Clear
12:55 AM 42.3 °F 39.0 °F 88% 30.10 in 10.0 mi Calm Calm - N/A   Clear
1:15 AM 42.3 °F 39.0 °F 88% 30.10 in 10.0 mi Calm Calm - N/A   Clear
1:35 AM 40.8 °F 39.2 °F 94% 30.11 in 10.0 mi Calm Calm - N/A   Clear
1:55 AM 40.8 °F 39.2 °F 94% 30.11 in 10.0 mi Calm Calm - N/A   Clear
2:15 AM 40.8 °F 39.6 °F 95% 30.11 in 10.0 mi Calm Calm - N/A   Clear
2:35 AM 39.9 °F 38.3 °F 94% 30.11 in 10.0 mi Calm Calm - N/A   Clear
2:55 AM 38.5 °F 37.4 °F 96% 30.10 in 10.0 mi Calm Calm - N/A   Clear
3:15 AM 37.9 °F 37.4 °F 98% 30.10 in 10.0 mi Calm Calm - N/A   Clear
3:35 AM 38.1 °F 37.9 °F 99% 30.09 in 10.0 mi Calm Calm - N/A   Clear
3:55 AM 37.8 °F 37.6 °F 99% 30.10 in 10.0 mi Calm Calm - N/A   Clear
4:15 AM 38.3 °F 38.1 °F 99% 30.10 in 10.0 mi Calm Calm - N/A   Clear
4:35 AM 37.6 °F 37.4 °F 99% 30.10 in 10.0 mi Calm Calm - N/A   Clear
4:55 AM 38.1 °F 38.1 °F 100% 30.10 in 10.0 mi Calm Calm - N/A   Clear
5:15 AM 37.6 °F 37.4 °F 99% 30.10 in 10.0 mi Calm Calm - N/A   Clear
5:35 AM 37.8 °F 37.8 °F 100% 30.11 in 7.0 mi Calm Calm - N/A   Clear
5:55 AM 37.0 °F 37.0 °F 100% 30.11 in 7.0 mi Calm Calm - N/A   Clear
6:15 AM 37.6 °F 37.6 °F 100% 30.12 in 5.0 mi Calm Calm - N/A   Clear
6:35 AM 37.9 °F 37.9 °F 100% 30.12 in 7.0 mi Calm Calm - N/A   Clear
7:15 AM 39.9 °F 39.7 °F 99% 30.12 in 10.0 mi Calm Calm - N/A   Clear
7:35 AM 40.1 °F 39.7 °F 99% 30.12 in 10.0 mi Calm Calm - N/A   Clear
7:55 AM 41.0 °F 41.0 °F 100% 30.13 in 7.0 mi Calm Calm - N/A   Clear
8:15 AM 43.0 °F 42.8 °F 99% 30.13 in 10.0 mi Calm Calm - N/A   Clear
8:35 AM 44.8 °F 43.5 °F 95% 30.13 in 10.0 mi Calm Calm - N/A   Clear
8:55 AM 46.0 °F 43.5 °F 91% 30.13 in 10.0 mi Calm Calm - N/A   Clear
9:15 AM 47.1 °F 42.6 °F 84% 30.13 in 10.0 mi Calm Calm - N/A   Clear
9:35 AM 48.6 °F 42.1 °F 78% 30.12 in 10.0 mi Calm Calm - N/A   Clear
9:55 AM 49.8 °F 40.5 °F 70% 30.13 in 10.0 mi Calm Calm - N/A   Clear
10:15 AM 51.3 °F 38.1 °F 61% 30.13 in 10.0 mi Calm Calm - N/A   Clear
10:35 AM 52.0 °F 38.1 °F 59% 30.12 in 10.0 mi Calm Calm - N/A   Clear
10:55 AM 53.2 °F 38.1 °F 57% 30.11 in 10.0 mi Calm Calm - N/A   Clear
11:15 AM 54.7 °F 38.7 °F 55% 30.12 in 10.0 mi NW 3.5 mph - N/A   Clear
11:35 AM 55.0 °F 38.1 °F 53% 30.12 in 10.0 mi NNW 4.6 mph - N/A   Clear
11:55 AM 55.9 °F 39.0 °F 53% 30.11 in 10.0 mi Calm Calm - N/A   Clear
12:15 PM 57.0 °F 39.2 °F 51% 30.11 in 10.0 mi Calm Calm - N/A   Clear
12:35 PM 57.4 °F 39.2 °F 51% 30.10 in 10.0 mi Calm Calm - N/A   Clear
12:55 PM 57.9 °F 40.6 °F 53% 30.09 in 10.0 mi Calm Calm - N/A   Clear
1:15 PM 58.1 °F 40.5 °F 52% 30.08 in 10.0 mi West 6.9 mph - N/A   Clear
1:35 PM 58.5 °F 41.4 °F 53% 30.07 in 10.0 mi Calm Calm - N/A   Clear
1:50 PM 58.5 °F 41.0 °F 52% 30.06 in 10.0 mi West 5.8 mph - N/A   Clear
2:15 PM 58.5 °F 40.3 °F 51% 30.05 in 10.0 mi Calm Calm - N/A   Unknown
2:35 PM 59.4 °F 41.2 °F 51% 30.05 in 10.0 mi WSW 5.8 mph - N/A   Clear
2:55 PM 59.0 °F 41.0 °F 51% 30.04 in 10.0 mi SW 6.9 mph - N/A   Clear
3:15 PM 59.5 °F 40.6 °F 50% 30.04 in 10.0 mi SW 5.8 mph - N/A   Clear
3:35 PM 60.1 °F 40.6 °F 49% 30.03 in 10.0 mi SW 5.8 mph - N/A   Clear
3:55 PM 59.9 °F 40.6 °F 49% 30.03 in 10.0 mi SW 3.5 mph - N/A   Clear
4:15 PM 60.4 °F 40.6 °F 48% 30.03 in 10.0 mi Calm Calm - N/A   Clear
4:35 PM 60.3 °F 40.8 °F 49% 30.02 in 10.0 mi West 5.8 mph - N/A   Clear
4:55 PM 59.9 °F 40.5 °F 49% 30.02 in 10.0 mi Calm Calm - N/A   Clear
5:15 PM 59.5 °F 40.3 °F 49% 30.02 in 10.0 mi Calm Calm - N/A   Clear
5:35 PM 59.2 °F 40.3 °F 50% 30.02 in 10.0 mi Calm Calm - N/A   Clear
5:55 PM 57.6 °F 41.7 °F 56% 30.02 in 10.0 mi Calm Calm - N/A   Clear
6:15 PM 54.1 °F 44.6 °F 70% 30.02 in 10.0 mi Calm Calm - N/A   Clear
6:35 PM 53.1 °F 44.4 °F 72% 30.02 in 10.0 mi Calm Calm - N/A   Clear
6:55 PM 50.9 °F 47.1 °F 87% 30.02 in 10.0 mi Calm Calm - N/A   Clear
7:15 PM 50.0 °F 45.3 °F 84% 30.02 in 10.0 mi Calm Calm - N/A   Clear
7:35 PM 47.3 °F 45.3 °F 93% 30.03 in 10.0 mi Calm Calm - N/A   Clear
7:55 PM 47.5 °F 45.5 °F 93% 30.03 in 10.0 mi Calm Calm - N/A   Clear
8:15 PM 46.4 °F 44.6 °F 93% 30.03 in 10.0 mi Calm Calm - N/A   Clear
8:35 PM 46.0 °F 43.7 °F 92% 30.04 in 10.0 mi Calm Calm - N/A   Clear
9:15 PM 44.8 °F 44.1 °F 97% 30.03 in 10.0 mi Calm Calm - N/A   Clear
9:35 PM 44.6 °F 43.3 °F 95% 30.03 in 10.0 mi Calm Calm - N/A   Clear
9:55 PM 44.2 °F 43.3 °F 97% 30.04 in 10.0 mi Calm Calm - N/A   Clear
10:15 PM 43.2 °F 42.4 °F 97% 30.04 in 10.0 mi Calm Calm - N/A   Clear
10:35 PM 43.0 °F 42.6 °F 99% 30.04 in 10.0 mi Calm Calm - N/A   Clear
10:55 PM 42.3 °F 41.9 °F 99% 30.04 in 10.0 mi Calm Calm - N/A   Clear
11:15 PM 41.9 °F 41.5 °F 99% 30.04 in 10.0 mi Calm Calm - N/A   Clear
11:35 PM 42.3 °F 42.1 °F 99% 30.03 in 10.0 mi Calm Calm - N/A   Clear
11:55 PM 41.4 °F 41.4 °F 100% 30.03 in 7.0 mi Calm Calm - N/A   Clear